User: anonymous   Login
Location: Unspecified
(43.0000°N, 0.0000°E)
Time: 07:33:17
(UTC+00:00)
Language:

CUBEBUG 2 - Orbit

View from above orbital plane
View from above orbital plane
View from above satellite
View from above satellite

Ground track
Ground track

The orbit data is extracted from the following two-line orbital elements,

1 39440U 13066AA  19200.87057119  .00000114  00000-0  22939-4 0  9991
2 39440  97.6025 197.4670 0079867 344.8424  15.0394 14.75863887304579
Epoch (UTC): 19 July 2019 20:53:37
Eccentricity: 0.0079867
inclination: 97.6025°
perigee height: 586 km
apogee height: 698 km
right ascension of ascending node: 197.4670°
argument of perigee: 344.8424°
revolutions per day: 14.75863887
mean anomaly at epoch: 15.0394°
orbit number at epoch: 30457

The dashed part of the orbit path shows where the satellite is in the earth's shadow,  

DLR